Content
SEND FEEDBACK

Daily
Averages
Monthly
Summary
United States of America

ST. LOUIS, MISSOURI


Home > North America > United States > Missouri
Elevation: 163 meters     Latitude: 38 45N     Longitude: 090 22W

WEATHER
 
SELECT A DAY
Number of Records: 200,462;   Date Range: 1/1/95 - 11/21/14
 
SHARE

PRINT THIS DATA

[ ← Previous Day ]
WEATHER ALMANAC - MARCH 5, 2013
[ Next Day → ]
[ °C ]   °F
Weather ElementAverageHighLow
Temperature34.7 °F41 °F (2:54 am)30.2 °F (6:20 pm)
Dewpoint27.4 °F35.6 °F (1:29 am)21 °F (2:54 pm)
Humidity75.4 %92 % (7:54 am)55 % (1:54 pm)
Barometer29.99 in30.17 in (11:54 pm)29.80 in (2:54 am)
Wind Speed16.3 mph27.6 mph (12:56 pm)
Wind Gust42.6 mph (2:54 pm)
Weather ElementAverage
Visibility6.9 mi
Wind DirectionW (270.5 °)

Weather ElementTotal
Precipitation0.20 in
Heating Degree Days29.4 (Base 65)
Averaged from 38 records on March 5, 2013
WEATHER CONDITIONS BREAKOUT
WIND DIRECTION BREAKOUT
WEATHER BY HOUR - MARCH 5, 2013
[ °C ]   °F
Local TimeTemperatureDewpointHumidityBarometerVisibilityWind DirectionWind SpeedGust SpeedPrecipitationEventsConditions
1:29 AM39.2 °F35.6 °F87 %29.82 in10.0 miCalmOvercast
1:54 AM39.9 °F35.1 °F83 %29.82 in10.0 miCalmOvercast
2:54 AM41.0 °F33.1 °F73 %29.80 in10.0 miNNE (20°)3.5 mphOvercast
3:54 AM39.0 °F33.1 °F79 %29.84 in10.0 miWNW (300°)6.9 mphOvercast
4:38 AM39.2 °F32.0 °F75 %29.84 in10.0 miWNW (300°)8.1 mphOvercast
4:54 AM37.9 °F30.9 °F76 %29.86 in10.0 miWNW (290°)10.4 mphOvercast
5:54 AM35.1 °F32.0 °F89 %29.90 in5.0 miWNW (290°)9.2 mph0.02 inRainLight Rain
6:49 AM33.8 °F30.2 °F87 %29.89 in2.0 miWNW (290°)11.5 mph20.7 mph0.01 inSnowLight Snow
6:54 AM34.0 °F30.9 °F89 %29.91 in1.5 miWest (280°)10.4 mph0.01 inSnowLight Snow
7:54 AM33.1 °F30.9 °F92 %29.92 in1.5 miWest (280°)12.7 mph0.03 inSnowLight Snow
8:41 AM33.8 °F30.2 °F87 %29.93 in0.5 miWNW (290°)11.5 mph0.02 inFog-SnowSnow
8:43 AM33.8 °F30.2 °F87 %29.93 in0.5 miWNW (290°)11.5 mph0.02 inFog-SnowSnow
8:54 AM33.1 °F30.9 °F92 %29.95 in0.5 miWNW (290°)12.7 mph0.03 inFog-SnowSnow
9:54 AM33.1 °F30.9 °F92 %29.96 in0.8 miWNW (300°)15.0 mph23.0 mph0.04 inSnowLight Snow
10:29 AM33.8 °F30.2 °F87 %29.94 in6.0 miWNW (300°)12.7 mph0.01 inOvercast
10:54 AM34.0 °F28.0 °F79 %29.96 in10.0 miWNW (290°)19.6 mph28.8 mph0.01 inOvercast
11:54 AM35.1 °F28.9 °F78 %29.98 in10.0 miWNW (290°)16.1 mph26.5 mphOvercast
12:54 PM37.0 °F28.0 °F70 %29.99 in10.0 miWNW (290°)25.3 mph32.2 mphMostly Cloudy
12:56 PM37.4 °F26.6 °F65 %29.97 in10.0 miWNW (290°)27.6 mph36.8 mphMostly Cloudy
1:54 PM37.9 °F23.0 °F55 %29.99 in10.0 miWNW (290°)27.6 mph40.3 mphMostly Cloudy
2:54 PM34.0 °F21.0 °F59 %30.03 in10.0 miWNW (290°)27.6 mph42.6 mphOvercast
3:54 PM34.0 °F21.0 °F59 %30.04 in10.0 miWNW (290°)26.5 mph34.5 mphOvercast
4:54 PM34.0 °F21.0 °F59 %30.05 in10.0 miWest (280°)18.4 mph27.6 mphOvercast
5:54 PM34.0 °F23.0 °F64 %30.06 in3.0 miWNW (300°)15.0 mph27.6 mph0.00 inSnowLight Snow
6:01 PM33.8 °F24.8 °F70 %30.04 in2.5 miWNW (300°)20.7 mph28.8 mph0.00 inSnowLight Snow
6:04 PM33.8 °F24.8 °F70 %30.05 in2.0 miWNW (300°)21.9 mph31.1 mph0.00 inSnowLight Snow
6:08 PM32.0 °F26.6 °F80 %30.05 in1.8 miWNW (290°)20.7 mph31.1 mph0.00 inSnowLight Snow
6:20 PM30.2 °F26.6 °F86 %30.06 in3.0 miWest (280°)20.7 mph27.6 mph0.00 inSnowLight Snow
6:54 PM32.0 °F25.0 °F75 %30.09 in10.0 miWNW (290°)18.4 mph28.8 mph0.00 inOvercast
7:32 PM32.0 °F24.8 °F75 %30.08 in5.0 miWNW (300°)18.4 mph29.9 mph0.00 inSnowLight Snow
7:54 PM32.0 °F25.0 °F75 %30.10 in9.0 miWNW (290°)16.1 mph23.0 mph0.00 inOvercast
8:36 PM33.8 °F24.8 °F70 %30.09 in10.0 miWNW (300°)20.7 mph26.5 mphOvercast
8:43 PM33.8 °F24.8 °F70 %30.09 in10.0 miWNW (300°)24.2 mph34.5 mphOvercast
8:54 PM34.0 °F24.1 °F67 %30.12 in10.0 miWNW (300°)23.0 mph32.2 mphOvercast
9:28 PM33.8 °F23.0 °F65 %30.11 in10.0 miWNW (300°)20.7 mph29.9 mphOvercast
9:54 PM33.1 °F24.1 °F70 %30.14 in7.0 miWNW (300°)16.1 mph31.1 mph0.00 inSnowLight Snow
10:54 PM33.1 °F23.0 °F66 %30.15 in10.0 miWNW (300°)19.6 mph27.6 mph0.00 inOvercast
11:54 PM33.1 °F21.9 °F64 %30.17 in10.0 miWNW (300°)18.4 mph28.8 mphOvercast
Hourly data recorded from KSUS, located miles away from St. Louis, Missouri







STORIES FROM OUR PARTNERS